Helicity
102 109 82 90 106 117 123 106 75 62 62 28 35 16 58 31 77 77 89 148 147 129 137 144 140 103 72 47 39 21 17 10 -13 1 29 4 -2 51 65 57 62 68 71 85
124 89 102 133 140 133 123 95 61 55 53 0 33 64 36 67 95 148 173 206 170 159 140 127 104 88 70 40 10 0 -4 6 7 51 118 77 70 83 72 64 53 41 47 59
100 100 119 141 136 131 111 85 70 65 40 20 5 10 59 100 86 160 171 170 155 160 138 115 90 69 47 12 -13 -7 16 53 63 116 152 105 93 89 78 62 64 74 74 90
111 123 123 137 126 117 103 97 87 47 36 19 21 -1 57 90 70 84 102 120 154 170 126 102 70 43 40 32 14 30 42 60 82 107 124 103 112 116 112 105 84 94 85 90
113 112 154 140 124 104 101 96 71 43 50 49 60 81 19 67 51 24 64 116 152 151 122 113 79 67 54 26 24 45 48 61 80 107 107 114 128 159 159 146 113 92 81 73
161 144 137 144 157 146 94 112 84 68 65 94 77 91 34 47 47 66 72 123 153 149 122 107 78 64 48 37 37 33 44 64 72 81 70 85 105 127 139 116 121 125 123 110
179 165 136 133 160 142 132 126 96 74 106 71 90 71 28 52 69 63 65 97 173 144 111 90 86 75 63 41 36 35 54 62 70 58 62 70 88 110 109 107 127 127 170 156
158 136 138 131 159 119 138 124 106 59 68 62 82 47 31 49 83 71 64 104 165 131 113 84 81 87 70 55 45 52 52 70 85 65 64 73 87 123 129 127 150 148 156 159
111 136 151 164 163 181 132 129 111 144 87 93 80 46 32 51 27 68 65 118 141 139 127 81 94 103 80 67 53 53 46 65 78 64 61 70 91 111 128 120 109 126 122 155
103 141 145 138 165 201 158 125 147 144 81 57 79 48 52 23 37 49 0 72 141 168 132 81 114 108 84 75 67 46 36 62 79 59 65 85 110 147 136 121 106 93 119 151
164 164 132 164 119 135 188 179 178 145 148 86 73 22 67 48 33 42 19 43 103 150 105 94 114 111 83 78 61 42 44 70 79 66 67 88 127 131 103 97 109 98 121 131
169 163 173 137 145 144 157 145 166 162 100 171 143 74 55 38 36 64 56 48 95 142 96 117 114 99 76 72 62 63 66 78 82 61 69 86 109 85 78 92 86 77 111 140
154 256 241 176 153 179 151 153 200 222 204 152 150 92 99 103 120 121 140 119 125 129 102 122 120 93 75 76 72 72 60 63 87 69 52 77 93 74 75 84 86 72 69 80
188 225 166 126 115 121 132 157 207 244 223 202 262 189 162 267 239 214 219 165 121 93 111 113 104 71 66 74 69 68 49 59 80 81 55 72 78 106 95 81 69 61 58 59
259 171 183 130 126 137 116 127 155 211 241 236 128 202 259 202 165 148 114 128 115 106 121 115 106 64 73 66 61 64 57 50 63 82 76 72 70 112 113 53 56 81 44 66
253 193 152 81 120 86 69 78 116 164 226 197 170 31 203 93 73 88 77 80 94 104 112 121 104 70 67 67 58 57 47 41 44 73 85 77 16 49 82 69 71 112 98 57
143 118 131 81 109 68 25 56 220 309 331 313 276 270 154 106 113 86 80 113 104 100 113 124 116 77 56 60 55 51 41 34 21 43 61 33 44 53 70 86 82 73 83 77
138 135 152 150 151 103 83 122 109 165 127 272 136 50 137 115 69 72 164 140 106 116 103 109 118 73 57 75 65 53 37 29 14 23 34 7 -40 50 61 81 67 80 107 99
181 192 177 166 133 82 20 61 129 151 19 156 181 90 104 111 34 55 80 106 94 107 110 130 112 95 85 69 74 66 46 35 28 23 32 21 -17 -34 45 70 79 70 80 97
269 252 189 140 129 73 56 61 50 47 51 60 107 72 100 80 86 71 56 83 58 62 136 151 110 107 94 74 87 89 66 55 45 45 45 33 37 8 -22 5 88 98 96 65
280 274 218 203 150 92 43 130 113 106 63 129 31 32 48 35 65 60 80 96 117 123 122 147 132 107 104 93 90 96 80 66 56 46 40 36 31 32 27 21 45 77 95 50
251 242 196 218 178 77 126 172 81 46 59 128 37 -79 -87 -1 51 101 107 115 160 148 139 146 143 108 105 103 97 107 88 81 61 45 37 37 44 41 52 30 -8 68 76 73
177 158 80 87 20 71 -20 -1 -4 72 81 59 82 -1 22 42 92 105 125 146 161 157 145 164 156 122 115 98 86 105 87 79 77 60 55 58 53 53 49 48 44 0 24 34
161 145 101 125 66 24 42 14 38 98 127 175 118 96 123 103 60 55 114 109 123 174 150 189 178 140 121 117 95 84 88 86 92 79 67 58 53 50 40 38 39 46 -9 -9
112 148 121 100 45 62 36 84 114 101 96 80 99 113 109 104 30 102 2 72 104 149 183 212 207 166 136 166 110 85 92 81 82 77 64 52 48 48 54 43 34 24 33 31
150 105 135 86 22 49 40 7 15 5 34 62 43 56 81 93 63 76 100 73 108 135 188 204 196 169 126 166 147 111 133 113 81 61 39 40 37 39 42 46 46 11 20 25
Wind_Speed
34 37 38 35 34 35 35 41 48 47 46 57 55 72 75 76 47 34 34 24 23 27 31 37 43 43 47 58 70 74 77 79 86 88 93 97 93 86 89 88 87 89 91 92
37 42 33 26 30 34 38 44 49 49 45 58 63 77 71 50 40 30 22 19 20 29 34 38 44 52 63 70 71 73 78 88 86 84 80 77 83 78 80 84 86 87 87 86
38 37 25 32 33 36 40 44 47 51 59 50 64 61 48 40 35 30 23 20 22 29 37 40 51 62 68 75 82 82 87 87 84 81 75 72 74 75 76 80 82 81 82 84
39 31 30 33 36 34 44 35 41 55 58 60 54 64 51 44 40 27 21 17 21 30 37 42 58 72 77 79 78 82 87 85 81 79 78 76 76 86 77 82 85 88 87 87
37 27 29 34 37 31 38 34 44 49 52 55 50 52 47 45 38 20 18 15 18 28 38 48 62 66 72 76 77 81 83 83 81 80 77 75 76 79 80 82 87 84 83 83
38 34 33 33 30 33 23 38 45 48 49 57 46 44 47 38 34 36 28 13 17 29 38 50 61 67 73 73 78 81 87 86 85 82 77 73 72 78 79 82 84 85 85 86
43 39 35 30 31 33 34 40 52 54 50 52 39 47 44 32 32 33 37 18 18 29 41 52 65 73 76 81 85 87 88 90 83 79 76 73 71 71 75 80 79 81 82 78
38 46 32 31 35 35 32 36 41 51 50 50 45 46 43 34 33 33 25 23 20 31 41 44 51 64 71 78 81 84 86 84 79 77 76 71 69 70 72 75 76 76 78 78
35 41 33 33 32 32 33 39 34 41 48 55 48 45 49 37 32 24 26 21 18 30 44 49 55 63 69 73 78 83 84 82 78 77 74 70 68 69 72 75 74 76 75 74
40 44 37 32 31 34 34 23 38 41 51 52 48 50 42 38 37 36 29 22 17 28 47 54 57 63 65 70 75 76 79 79 76 75 73 68 68 70 69 68 66 64 63 68
39 43 40 35 38 33 34 38 37 37 41 50 57 46 29 30 32 37 39 28 20 27 40 49 52 57 61 67 73 77 81 80 77 74 72 70 73 67 62 60 58 54 56 60
42 40 46 45 39 37 37 34 29 44 47 43 50 62 37 28 32 40 42 36 26 27 35 38 45 53 59 67 73 77 78 80 77 71 70 73 76 71 63 59 52 46 43 42
38 46 48 48 47 43 42 37 35 36 40 45 51 51 39 39 37 42 41 43 32 32 33 35 43 50 57 64 72 74 79 80 76 70 76 74 74 76 65 60 51 45 34 29
41 48 51 58 50 35 44 37 30 34 44 49 33 50 34 37 39 42 43 38 36 34 31 33 41 47 54 61 67 72 79 77 74 72 75 76 77 63 50 48 51 49 40 21
49 61 59 63 55 50 49 42 25 28 33 36 39 40 29 25 46 49 51 50 43 35 31 31 39 46 52 58 64 71 76 78 76 71 74 79 78 58 55 57 53 54 48 18
53 67 57 64 57 59 69 58 34 33 41 33 38 58 34 45 40 41 46 54 48 35 31 31 36 44 49 56 62 69 75 77 74 72 72 76 85 78 71 60 53 49 60 17
47 56 62 74 57 62 84 42 32 36 38 33 33 25 44 35 43 47 51 49 42 33 30 29 35 40 45 50 54 63 68 68 72 71 72 78 78 77 73 59 57 63 54 36
41 45 48 57 48 76 60 41 33 22 24 21 27 26 15 31 47 47 32 37 35 28 24 25 32 37 40 43 47 53 61 65 69 72 74 78 81 73 70 69 70 55 55 45
44 41 52 61 61 69 68 43 34 36 47 17 19 15 26 39 52 53 40 33 30 24 21 24 29 33 35 38 41 48 57 59 64 70 70 72 78 80 75 72 68 63 58 57
42 41 47 47 58 61 42 34 29 32 52 29 8 16 25 35 51 55 40 38 30 20 21 22 26 28 30 33 35 43 49 52 57 57 56 61 65 73 78 75 65 70 63 41
51 53 56 57 62 62 51 35 29 47 40 25 16 25 27 34 34 43 44 37 28 18 17 20 21 21 23 26 28 36 41 46 44 41 45 53 61 63 65 71 71 69 69 31
53 48 52 49 58 70 26 25 36 34 36 29 24 27 34 29 40 39 40 31 17 13 12 13 15 15 16 18 22 28 31 33 36 37 42 48 53 60 59 67 73 65 65 75
63 52 49 41 42 37 22 31 20 29 39 38 36 41 42 43 52 51 41 23 9 7 5 7 10 10 12 13 15 20 21 25 30 34 39 42 47 50 46 59 64 69 72 73
65 51 60 49 55 60 49 43 49 43 41 46 48 42 46 64 72 74 37 18 8 4 2 4 5 7 9 15 17 17 20 22 25 27 30 32 38 43 42 43 47 56 57 69
57 45 61 69 69 60 56 48 44 47 48 53 52 51 52 58 78 60 43 13 9 6 2 3 9 13 17 19 22 26 24 25 24 25 27 28 31 35 40 40 39 45 44 43
57 57 61 65 54 44 43 45 49 53 52 56 61 67 62 53 64 64 47 15 10 8 5 6 14 18 22 22 23 28 30 30 29 28 28 27 27 29 32 37 41 37 42 47
Wind_Direction
290 287 288 293 300 307 310 309 306 309 313 304 300 280 269 286 312 316 320 332 342 347 354 351 349 349 345 334 325 327 328 330 328 326 321 314 312 313 307 303 300 296 292 289
288 286 294 304 306 308 309 307 305 308 311 302 298 275 295 317 322 325 328 336 347 350 350 350 348 340 329 328 332 332 331 329 331 329 327 322 317 318 314 307 302 298 294 291
286 295 298 299 301 303 306 306 306 302 299 309 301 303 319 331 338 340 343 347 352 351 348 348 339 330 331 331 328 330 330 332 332 332 331 326 321 320 318 311 306 303 299 294
291 294 295 298 299 304 301 314 310 299 299 297 314 300 316 325 329 337 346 349 349 349 349 346 335 327 330 331 333 333 333 334 334 334 331 327 323 318 318 314 308 304 300 296
290 294 292 294 300 304 306 313 307 304 304 305 312 310 320 328 332 334 337 344 347 348 347 342 336 338 336 336 337 337 337 336 336 333 331 327 324 321 319 315 309 307 304 300
290 296 298 300 305 306 320 311 308 307 306 299 313 315 320 332 346 343 347 346 349 348 349 343 339 339 338 340 340 340 339 338 335 333 331 329 326 324 322 317 313 310 307 303
284 286 294 298 299 302 303 305 299 298 301 301 318 316 320 335 347 349 348 356 355 355 351 345 340 338 339 339 340 341 340 338 338 336 333 331 329 327 323 319 317 314 312 309
274 282 282 292 292 296 295 298 298 298 301 306 316 314 323 347 353 353 352 5 7 358 354 352 348 345 344 343 344 344 343 342 342 339 336 335 333 330 326 323 320 316 314 310
280 283 293 294 293 293 295 293 305 303 306 304 308 318 322 337 345 348 349 354 354 357 353 352 349 348 347 348 348 347 346 345 344 342 341 340 338 335 330 327 323 319 316 312
278 283 290 291 295 296 293 305 300 303 302 304 309 311 321 338 348 355 357 347 340 349 350 349 349 349 350 351 351 351 350 349 347 345 345 344 341 339 335 332 327 324 321 317
273 278 286 287 280 279 287 290 298 306 305 304 306 316 336 342 351 350 351 353 341 342 349 350 351 352 353 354 354 354 353 352 351 350 350 348 345 344 343 339 335 331 327 324
267 279 275 279 288 290 288 289 291 293 298 305 309 309 333 342 347 344 346 351 346 341 344 351 354 354 355 356 357 357 357 356 355 355 354 352 349 349 350 348 344 340 333 328
267 270 271 276 281 284 282 283 290 299 304 299 304 312 334 335 340 338 341 343 342 341 345 352 355 356 357 358 358 359 358 358 360 359 354 356 354 352 354 355 356 354 342 337
268 267 267 269 279 287 281 282 282 289 295 299 294 309 278 320 324 330 335 340 341 345 349 354 356 358 360 1 1 1 360 2 4 5 1 1 359 4 5 5 5 6 6 355
267 266 268 269 274 281 285 288 281 274 287 292 301 306 275 287 330 334 337 344 347 349 353 356 359 359 2 2 2 3 2 3 6 10 8 5 4 14 13 12 14 15 20 23
266 262 270 269 275 278 278 282 283 280 292 272 291 250 258 250 335 339 342 343 346 352 356 0 2 2 3 3 3 3 3 5 10 14 14 12 1 11 17 21 25 26 19 36
270 266 266 265 275 278 272 279 267 286 291 288 285 257 321 329 332 336 340 345 349 354 359 4 5 6 6 7 7 7 7 13 14 18 20 15 19 23 28 35 38 35 42 323
273 270 267 269 276 266 283 304 304 283 291 258 285 238 286 327 329 335 342 346 352 358 3 9 11 10 11 14 15 14 13 15 17 21 23 22 16 33 37 40 41 52 56 67
272 272 271 265 268 277 281 300 306 303 306 279 249 259 325 328 326 336 349 358 2 10 16 18 17 17 19 19 22 20 15 19 20 21 28 30 25 27 42 49 52 54 60 64
269 271 269 274 270 275 294 310 322 326 307 333 9 350 344 340 328 336 352 358 5 22 28 26 23 25 27 27 29 26 22 25 25 32 41 40 42 37 37 48 60 59 68 83
257 263 261 266 270 280 290 304 314 302 310 336 357 350 352 344 342 344 348 353 3 19 30 33 32 34 38 42 40 33 30 28 40 50 51 48 42 47 52 49 55 64 71 79
252 256 262 266 270 278 299 310 298 313 322 322 333 341 337 344 338 339 343 350 1 9 29 39 39 47 61 63 54 45 45 51 54 59 58 56 55 51 59 54 43 69 75 72
252 256 264 260 278 293 299 310 313 324 322 319 319 325 327 330 327 331 340 347 341 356 28 58 51 72 94 109 88 68 80 79 67 67 66 68 64 65 76 63 62 35 51 62
256 260 265 271 277 279 289 298 299 304 311 315 313 320 320 311 306 300 334 336 321 307 226 108 98 128 129 140 139 128 112 99 91 89 89 92 82 78 85 88 86 78 25 41
259 256 261 266 272 284 287 299 307 310 309 309 315 317 317 315 297 314 248 277 267 268 270 171 175 174 172 150 159 160 147 142 138 134 128 122 115 105 96 98 100 93 94 97
255 260 261 268 279 282 292 305 310 309 310 312 313 308 310 318 311 309 322 252 276 261 305 223 195 186 179 165 162 165 154 149 149 153 154 147 139 126 113 100 94 106 97 89